Wind_Speed
9 8 7 7 7 6 7 7 6 6 9 9 11 12 13 14 12 13 13 13 12 11 11 10 10 10 10 10 9 10 10 9 9 8 8 6 5 5 5 5 6 6 7 7
9 8 8 9 9 8 9 8 7 7 10 10 11 12 12 15 14 14 15 14 13 12 11 11 11 10 10 10 10 10 10 10 9 9 8 8 7 6 6 6 7 7 8 7
11 9 10 11 11 10 10 10 9 10 12 13 13 11 14 14 16 15 14 15 15 13 12 11 12 11 11 11 10 10 10 10 10 9 9 9 8 7 6 7 8 8 8 8
12 12 13 12 12 11 12 11 11 12 12 12 12 14 15 15 16 16 15 16 15 15 14 13 13 12 12 11 11 11 11 11 10 10 9 9 9 8 7 7 7 7 8 9
12 13 15 15 14 13 13 13 13 12 13 13 13 14 16 15 16 16 17 16 16 16 15 14 14 13 13 12 12 12 12 11 11 10 10 10 9 9 8 8 8 8 9 9
13 14 15 15 15 15 14 13 11 11 12 13 12 13 15 17 18 17 19 18 17 17 16 16 15 14 14 14 13 13 12 11 11 11 11 10 10 11 10 9 9 9 9 9
14 15 16 15 15 15 14 12 12 12 13 12 12 14 17 19 19 18 19 19 17 17 17 17 17 15 15 14 14 13 12 12 11 11 11 11 12 12 12 11 10 10 11 11
15 16 16 17 16 15 14 14 14 13 12 13 13 16 16 18 18 19 19 18 18 17 16 18 18 17 16 14 14 13 12 12 12 12 12 12 13 13 12 11 11 12 12 12
16 17 16 18 17 17 17 16 15 16 15 16 15 16 17 19 18 18 19 19 18 17 17 17 18 16 15 14 13 13 13 13 13 12 12 13 13 13 12 12 12 14 14 14
17 17 16 17 18 18 18 16 15 16 16 16 16 18 21 20 18 18 20 19 18 18 18 17 18 17 15 14 15 14 13 13 13 13 13 13 13 14 14 14 14 15 16 16
20 20 18 18 19 18 18 18 17 17 17 16 17 19 20 21 21 20 20 20 20 20 19 17 17 17 17 16 16 15 14 14 15 14 14 15 16 16 16 16 17 17 18 19
22 21 21 19 19 20 19 19 19 19 19 18 18 21 22 20 20 21 20 21 20 21 20 19 18 18 16 16 17 17 17 17 17 17 17 18 18 18 19 19 20 20 20 21
23 24 23 21 20 21 21 19 19 19 20 20 19 23 24 23 23 22 22 22 21 21 21 20 19 19 19 18 19 18 18 19 19 20 20 20 20 20 21 22 22 23 23 23
26 26 24 22 21 20 20 20 20 20 21 22 22 23 25 24 26 25 24 24 24 23 22 22 21 20 21 21 21 20 21 22 22 22 22 22 22 22 22 23 24 24 24 25
27 27 26 25 23 21 21 21 22 23 23 23 23 24 26 27 26 26 25 25 26 25 24 24 23 23 23 22 22 22 23 24 24 24 24 24 24 24 24 25 26 26 26 26
27 28 28 27 24 24 23 23 22 23 23 24 25 26 25 28 27 26 27 27 27 26 25 25 25 24 24 24 25 25 25 26 26 27 27 26 26 27 27 27 27 27 27 27
28 28 29 28 25 25 27 25 24 24 24 25 26 28 29 32 30 29 30 30 29 28 28 27 27 26 26 26 26 27 27 28 28 29 29 29 29 29 29 29 29 29 28 28
29 29 30 29 27 29 27 25 26 26 27 28 30 32 32 34 33 33 33 32 32 30 29 28 28 28 28 28 28 29 29 30 30 31 31 31 31 31 31 31 31 31 30 31
28 29 31 30 28 28 26 26 27 27 28 28 31 34 35 33 34 35 34 33 33 32 31 30 30 30 30 30 30 31 31 32 32 33 33 33 33 33 33 33 33 33 33 33
29 31 31 31 30 28 28 27 26 27 30 31 34 35 34 34 34 35 35 34 33 32 32 32 32 32 31 31 31 31 32 32 33 34 35 35 34 34 34 34 34 35 35 35
30 31 32 32 31 30 30 31 29 30 31 33 34 35 33 32 34 35 34 34 34 32 31 32 32 32 32 31 31 31 32 33 34 35 35 36 36 35 35 35 35 36 35 35
30 31 32 32 31 32 32 33 33 32 33 34 34 35 34 34 34 34 34 33 32 31 31 32 32 32 32 32 32 32 32 33 34 34 35 36 36 37 36 36 36 36 36 36
31 31 30 30 32 33 33 34 34 34 35 35 35 35 35 34 34 34 34 34 33 33 33 33 33 33 32 32 32 33 33 34 34 35 35 35 36 36 36 36 36 35 35 35
31 33 34 35 35 35 35 35 34 35 36 36 36 35 35 35 34 33 33 33 33 34 34 34 33 33 33 33 32 33 33 34 34 34 35 35 35 35 36 35 35 35 34 34
32 34 35 36 36 36 36 36 36 36 36 36 36 35 35 34 34 33 33 33 33 33 34 34 34 34 34 33 33 33 33 33 34 34 35 35 35 35 35 35 35 34 34 35
32 33 34 35 37 38 36 36 35 35 35 35 35 35 34 34 33 33 32 33 33 33 34 34 33 34 34 34 34 33 33 34 33 34 34 35 35 35 35 34 34 34 34 34
Wind_Direction
207 220 231 233 245 238 238 234 242 264 279 284 290 300 305 310 309 309 313 320 325 327 330 330 334 337 338 339 341 345 346 345 343 340 336 323 314 293 276 274 282 285 286 280
216 229 234 233 240 250 259 252 256 268 270 280 285 291 302 301 310 311 307 312 318 320 322 327 326 332 333 334 335 338 340 339 337 334 336 330 316 298 281 279 285 289 289 279
225 229 234 235 243 250 252 255 257 261 271 286 293 287 292 293 304 303 305 309 311 312 315 321 324 327 327 328 329 329 330 330 332 331 329 331 323 313 296 291 293 292 289 285
226 226 237 243 241 248 257 260 259 260 263 272 280 285 292 295 296 298 302 304 306 306 308 311 314 319 321 320 319 320 322 325 327 326 324 325 323 318 309 304 311 307 300 295
228 234 240 244 247 250 254 258 260 260 264 266 262 269 279 290 287 297 302 300 300 300 303 304 308 309 311 312 312 314 317 320 323 325 321 321 316 314 307 302 306 311 312 310
234 244 248 249 249 252 255 257 264 271 270 274 275 268 269 273 282 290 297 300 300 297 297 299 301 303 303 303 305 307 311 314 317 321 323 319 317 311 307 299 297 303 308 311
239 246 254 255 248 252 256 258 265 270 278 285 286 275 271 274 277 281 289 294 294 292 293 295 298 297 295 295 297 302 305 307 312 315 319 316 315 314 310 300 297 299 302 305
248 249 250 253 252 250 254 252 255 262 267 276 276 272 271 273 279 285 287 290 292 291 291 294 295 293 293 291 294 296 297 301 305 310 316 315 315 317 316 303 297 297 299 301
245 253 255 254 254 254 252 248 253 258 261 266 268 269 269 273 276 281 287 289 289 290 290 291 292 292 291 290 290 292 292 295 300 303 309 311 313 314 315 310 305 300 299 300
237 245 248 254 256 256 252 252 250 249 257 262 271 274 271 269 272 282 289 290 290 290 287 285 290 292 288 285 286 288 288 293 297 299 304 306 307 310 311 308 304 306 302 298
235 238 243 250 255 252 252 252 247 248 247 254 266 271 268 270 277 282 289 290 289 290 290 289 287 288 288 283 282 282 286 289 293 297 300 302 304 304 303 303 302 299 297 295
241 239 242 246 255 257 252 251 250 249 250 247 256 270 273 272 275 281 282 285 286 288 289 287 284 285 281 281 282 280 283 287 290 293 295 297 299 299 299 300 298 296 295 295
239 240 243 246 252 256 255 251 249 248 252 253 253 265 270 273 271 276 279 282 284 285 285 284 284 284 283 282 281 280 282 285 287 289 292 293 295 296 297 298 296 294 293 293
239 240 240 241 244 249 255 256 251 245 247 253 254 261 269 272 275 275 276 279 281 283 282 281 281 282 282 281 280 282 283 284 286 287 289 290 291 293 295 295 295 294 292 292
243 243 242 240 240 246 254 257 253 251 248 251 257 259 262 266 268 271 275 276 277 279 278 279 279 280 281 281 280 281 281 282 284 286 287 288 289 290 292 294 294 294 292 291
245 245 242 240 240 245 251 253 252 253 252 252 254 257 261 263 265 270 274 275 275 276 277 277 278 279 279 280 278 278 279 280 282 284 287 287 288 289 291 292 292 292 291 291
247 247 246 244 244 247 250 251 251 251 252 250 251 254 257 262 266 269 270 271 274 275 276 277 276 276 277 277 277 276 278 280 281 283 285 286 286 287 289 290 291 290 289 289
247 247 249 249 247 248 248 250 252 252 252 252 252 253 254 260 264 268 269 269 271 274 274 274 275 275 274 274 275 275 277 279 280 282 283 285 285 286 287 288 289 288 288 289
247 249 249 248 249 251 253 253 253 254 254 254 255 256 257 261 264 266 267 267 269 271 271 271 272 273 274 274 274 275 276 278 279 280 281 283 284 285 286 287 287 287 287 288
249 250 250 250 250 251 254 255 254 254 256 255 256 260 262 264 266 268 269 269 269 269 270 271 272 273 274 274 275 275 276 277 278 280 281 283 284 284 285 285 286 286 287 287
249 251 252 253 252 254 254 252 252 254 256 257 260 264 265 266 268 270 270 269 269 269 269 270 271 272 273 274 274 275 276 277 279 281 282 283 285 285 285 285 286 286 286 286
248 250 252 252 251 251 252 252 251 252 255 258 262 266 269 269 268 269 269 269 269 268 269 269 271 272 273 274 275 275 276 278 280 281 283 284 285 285 285 285 286 286 286 285
247 250 251 251 248 249 251 252 253 254 257 260 263 266 268 268 268 267 267 268 268 268 269 269 271 272 273 274 275 276 277 279 281 282 283 284 285 284 284 284 285 285 284 284
246 245 245 248 248 248 251 253 254 255 257 259 262 266 267 267 267 267 266 266 267 268 268 269 270 272 273 274 275 277 279 280 281 283 284 286 286 286 284 285 285 284 283 284
246 246 246 248 248 249 251 253 255 256 257 259 261 264 267 267 267 267 267 267 267 269 269 269 270 272 273 275 276 278 280 281 282 283 284 285 285 287 287 286 286 286 285 285
246 246 245 248 250 250 252 254 255 258 260 262 263 265 267 267 266 266 267 267 267 268 268 269 270 272 273 275 277 278 280 282 283 284 284 285 286 286 286 287 286 287 288 288
Height
5911 5914 5915 5917 5917 5919 5920 5922 5923 5924 5924 5922 5921 5919 5917 5915 5914 5912 5911 5910 5910 5909 5907 5906 5905 5903 5902 5901 5900 5899 5898 5897 5896 5895 5895 5894 5894 5894 5894 5894 5895 5895 5895 5895
5911 5913 5915 5915 5916 5918 5919 5920 5920 5921 5921 5920 5919 5918 5916 5915 5913 5911 5910 5909 5908 5908 5907 5905 5904 5903 5902 5901 5900 5899 5898 5897 5896 5895 5894 5894 5893 5893 5893 5893 5894 5894 5894 5894
5909 5913 5913 5915 5915 5916 5917 5918 5919 5919 5919 5918 5917 5916 5914 5913 5912 5911 5909 5907 5907 5906 5906 5905 5904 5902 5901 5900 5899 5898 5897 5896 5895 5894 5893 5893 5892 5892 5892 5893 5893 5892 5893 5893
5907 5910 5911 5912 5913 5914 5915 5916 5917 5916 5916 5916 5917 5915 5913 5911 5910 5908 5907 5906 5905 5904 5904 5903 5902 5901 5900 5899 5898 5897 5896 5895 5894 5893 5892 5891 5891 5891 5891 5892 5892 5892 5892 5891
5904 5907 5908 5909 5911 5912 5913 5913 5913 5914 5914 5914 5914 5913 5911 5909 5907 5906 5906 5905 5904 5903 5902 5901 5901 5900 5899 5898 5897 5896 5895 5894 5893 5892 5891 5890 5890 5890 5890 5890 5890 5891 5890 5890
5902 5904 5905 5907 5908 5909 5909 5910 5910 5911 5911 5911 5911 5911 5908 5907 5907 5905 5904 5903 5902 5901 5900 5899 5898 5897 5897 5896 5895 5895 5894 5893 5892 5891 5890 5889 5889 5889 5889 5889 5889 5889 5889 5888
5899 5900 5901 5903 5904 5906 5906 5907 5908 5909 5909 5909 5910 5908 5907 5905 5905 5904 5902 5901 5900 5899 5898 5897 5895 5894 5894 5893 5893 5893 5892 5892 5891 5890 5890 5889 5889 5888 5887 5887 5887 5887 5887 5886
5896 5898 5899 5899 5900 5902 5903 5905 5906 5907 5908 5907 5907 5905 5904 5903 5902 5901 5900 5899 5897 5896 5896 5894 5893 5892 5891 5890 5890 5890 5890 5890 5889 5889 5888 5887 5887 5886 5886 5885 5885 5885 5884 5884
5893 5895 5896 5896 5896 5898 5899 5900 5902 5904 5904 5904 5904 5903 5900 5897 5898 5898 5897 5896 5895 5893 5893 5891 5890 5889 5888 5888 5888 5887 5887 5887 5887 5887 5886 5885 5885 5885 5884 5883 5883 5882 5881 5881
5888 5890 5892 5892 5892 5893 5895 5896 5898 5899 5900 5900 5901 5899 5896 5893 5893 5893 5893 5892 5890 5889 5888 5887 5886 5886 5885 5885 5885 5884 5884 5885 5884 5884 5883 5883 5883 5882 5882 5881 5881 5880 5878 5878
5882 5885 5887 5888 5888 5889 5890 5892 5892 5894 5895 5897 5897 5896 5892 5890 5888 5888 5888 5887 5886 5885 5884 5884 5883 5883 5882 5881 5881 5881 5881 5881 5881 5881 5881 5880 5880 5879 5879 5878 5877 5876 5875 5874
5876 5879 5880 5882 5884 5884 5885 5887 5888 5890 5890 5891 5892 5892 5887 5885 5884 5883 5883 5883 5882 5881 5881 5880 5880 5879 5878 5877 5878 5878 5878 5878 5878 5878 5877 5877 5876 5875 5875 5874 5873 5872 5871 5870
5870 5872 5874 5877 5880 5880 5879 5881 5883 5884 5886 5886 5887 5888 5883 5882 5880 5879 5879 5878 5878 5877 5877 5876 5876 5875 5875 5874 5874 5874 5874 5874 5874 5873 5873 5873 5872 5871 5870 5869 5868 5867 5866 5865
5863 5865 5868 5872 5873 5873 5873 5874 5876 5878 5880 5880 5881 5880 5877 5876 5874 5873 5874 5873 5873 5872 5872 5872 5871 5871 5871 5870 5870 5869 5869 5869 5869 5869 5868 5868 5867 5866 5865 5864 5862 5861 5860 5859
5855 5858 5860 5863 5866 5867 5868 5869 5870 5871 5873 5875 5875 5874 5872 5870 5867 5867 5867 5867 5867 5867 5867 5866 5866 5866 5866 5866 5865 5865 5864 5864 5864 5863 5863 5862 5861 5860 5859 5858 5856 5855 5854 5853
5847 5850 5852 5855 5858 5860 5861 5863 5864 5865 5866 5867 5868 5866 5864 5862 5861 5861 5861 5861 5860 5861 5861 5861 5861 5860 5860 5860 5860 5859 5859 5858 5858 5857 5856 5855 5855 5854 5852 5851 5850 5848 5847 5846
5839 5842 5844 5847 5850 5852 5854 5857 5858 5858 5859 5859 5859 5859 5857 5855 5854 5854 5855 5854 5854 5854 5854 5854 5854 5854 5854 5854 5853 5853 5853 5852 5851 5851 5850 5849 5848 5847 5846 5844 5842 5841 5839 5838
5833 5834 5836 5838 5842 5842 5848 5849 5849 5849 5850 5850 5849 5849 5848 5848 5847 5847 5847 5847 5847 5847 5847 5847 5847 5847 5847 5847 5846 5846 5846 5845 5845 5844 5843 5842 5841 5840 5838 5837 5835 5833 5832 5830
5824 5826 5828 5830 5832 5834 5839 5840 5841 5840 5840 5841 5839 5839 5840 5840 5839 5838 5838 5838 5839 5839 5839 5840 5840 5839 5839 5839 5839 5839 5838 5838 5837 5836 5835 5834 5833 5831 5830 5829 5827 5825 5823 5822
5817 5818 5820 5822 5824 5827 5831 5831 5831 5832 5831 5830 5829 5829 5830 5831 5831 5830 5830 5830 5830 5830 5831 5831 5831 5831 5831 5831 5831 5831 5830 5830 5829 5828 5827 5826 5824 5823 5821 5820 5818 5816 5814 5813
5808 5809 5810 5812 5814 5817 5819 5819 5821 5823 5822 5820 5820 5821 5820 5821 5822 5821 5821 5821 5821 5821 5823 5823 5823 5823 5823 5823 5822 5822 5822 5821 5820 5819 5818 5817 5815 5814 5812 5810 5809 5807 5805 5803
5800 5801 5802 5804 5806 5809 5807 5808 5810 5810 5811 5812 5812 5812 5812 5813 5813 5812 5812 5812 5812 5812 5814 5814 5814 5815 5815 5815 5814 5814 5813 5812 5811 5810 5809 5808 5806 5804 5803 5801 5799 5797 5795 5793
5792 5794 5794 5795 5796 5797 5798 5798 5800 5801 5802 5803 5804 5804 5804 5804 5804 5804 5804 5804 5805 5805 5805 5806 5806 5806 5806 5806 5806 5805 5804 5803 5802 5801 5800 5798 5797 5794 5793 5791 5789 5787 5785 5784
5781 5781 5783 5784 5785 5786 5788 5789 5790 5792 5793 5794 5795 5795 5795 5794 5795 5795 5795 5795 5796 5796 5797 5797 5797 5797 5797 5797 5796 5796 5795 5794 5793 5791 5790 5788 5787 5785 5783 5781 5779 5778 5776 5774
5771 5772 5773 5774 5776 5778 5778 5780 5782 5782 5784 5785 5785 5785 5785 5785 5785 5786 5786 5787 5787 5787 5787 5788 5788 5788 5788 5788 5787 5787 5786 5784 5783 5782 5780 5779 5777 5775 5773 5771 5770 5768 5767 5765
5762 5763 5764 5764 5766 5768 5769 5771 5772 5773 5774 5775 5776 5776 5776 5776 5776 5777 5778 5778 5779 5779 5778 5778 5779 5779 5778 5778 5778 5777 5776 5775 5774 5772 5771 5769 5767 5766 5764 5762 5761 5759 5758 5756